Regional Weather Roundup
Issued by NWS

Home | Current Version | Previous Version | Text Only | Print | Product List | Glossary On
Versions: 1 2 3 4 5 6 7 8 9 10 11 12 13 14 15 16 17 18 19 20 21 22 23 24 25 26 27 28 29 30 31 32 33 34 35 36 37 38 39 40 41 42 43 44 45 46 47 48 49 50
000
ASUS46 KSEW 220810
RWRWA

WASHINGTON REGIONAL WEATHER ROUNDUP
NATIONAL WEATHER SERVICE SEATTLE WA
100 AM PDT FRI AUG 22 2014

NOTE:"FAIR" INDICATES FEW OR NO CLOUDS BELOW 12,000 FEET WITH NO
SIGNIFICANT WEATHER AND/OR OBSTRUCTIONS TO VISIBILITY.

WAZ505-507>509-220900-
SEATTLE, TACOMA, EVERETT, AND VICINITY

CITY           SKY/WX    TMP DP  RH WIND       PRES   REMARKS
EVERETT        CLEAR     57  52  83 N7        30.01R
BOEING FIELD   CLEAR     62  52  69 CALM      29.99S
RENTON         CLEAR     59  54  83 CALM      29.99S
SEATAC AIRPORT CLEAR     59  51  75 CALM      30.00S
JBLM-MCCHORD   CLEAR     55  51  86 S2        30.00R
PUYALLUP       NOT AVBL
JBLM-FT LEWIS  CLEAR     58  54  86 NW3       30.00R
TACOMA NARROWS CLEAR     59  52  77 N3        30.00S
$$

WAZ001-503-506-510-514-515-220900-
NORTH INTERIOR

CITY           SKY/WX    TMP DP  RH WIND       PRES   REMARKS
BELLINGHAM     CLEAR     56  52  86 CALM      29.99S
FRIDAY HARBOR  CLEAR     49  48  97 CALM      30.00S
EASTSOUND      PTCLDY    55  52  88 CALM      29.98S
PORT ANGELES   MOCLDY    54  51  90 W7        30.01R
NAS WHIDBEY    PTCLDY    56  52  86 SW7       30.01S
BURLINGTON     CLEAR     54  52  94 CALM      30.02R
$$

WAZ020-022-039-040-504-511-512-220900-
SOUTHWEST INTERIOR

CITY           SKY/WX    TMP DP  RH WIND       PRES   REMARKS
SHELTON        CLEAR     55  53  93 CALM      29.98R
OLYMPIA        CLEAR     52  49  89 CALM      30.00R
CHEHALIS       FAIR      57  55  94 CALM      30.00R
KELSO          CLOUDY    61  52  72 CALM      30.02S
VANCOUVER      CLEAR     64  51  62 NW5       29.96S
SCAPPOOSE, OR  CLEAR     60  50  69 CALM      29.96S
PORTLAND, OR   CLEAR     64  51  62 NW10      29.97S
$$

WAZ021-516-517-220900-
WASHINGTON COAST

CITY           SKY/WX    TMP DP  RH WIND       PRES   REMARKS
FORKS          PTCLDY    52  51  97 CALM      30.02S FOG
HOQUIAM        CLOUDY    59  58  96 NW5       30.00F
ASTORIA, OR    LGT RAIN  61  57  87 CALM      29.99S
$$

WAZ019-023-024-040-518-519-220900-
CASCADE MOUNTAINS AND COLUMBIA GORGE

CITY           SKY/WX    TMP DP  RH WIND       PRES   REMARKS
STAMPEDE PASS  NOT AVBL
TROUTDALE, OR  CLEAR     64  47  53 W3        29.96R
THE DALLES, OR CLEAR     64  49  57 W6        29.90R
$$

WAZ026-027-041>044-520-521-220900-
EAST SLOPES

CITY           SKY/WX    TMP DP  RH WIND       PRES   REMARKS
OMAK           MOCLDY    57  55  93 N14       29.98F
WENATCHEE      PTCLDY    66  50  56 NW8       29.93R
ELLENSBURG     PTCLDY    63  45  51 NW14      29.94R
YAKIMA         PTCLDY    66  42  41 N7        29.91S
$$

WAZ028-034-035-220900-
COLUMBIA BASIN

CITY           SKY/WX    TMP DP  RH WIND       PRES   REMARKS
EPHRATA        PTCLDY    65  51  60 N9        29.90S
MOSES LAKE     CLEAR     64  50  60 N15       29.90S
PASCO          CLEAR     62  43  49 NW8       29.86R
HERMISTON, OR  CLEAR     67  45  45 SW15      29.87R
$$

WAZ036>038-220900-
NORTHEAST WASHINGTON

CITY           SKY/WX    TMP DP  RH WIND       PRES   REMARKS
SPOKANE GEIGER MOCLDY    60  51  72 NE6       29.93S
SPOKANE FELTS  MOCLDY    59  52  77 CALM      29.93S
FAIRCHILD AFB  MOCLDY    57  49  76 NE7       29.94S
COEURDALENE,ID MOCLDY    57  52  82 N16       29.94F
DEER PARK      HVY RAIN  59  51  75 NE14      29.95S
$$

WAZ029>033-220900-
SOUTHEAST WASHINGTON

CITY           SKY/WX    TMP DP  RH WIND       PRES   REMARKS
PULLMAN        MOCLDY    53  42  66 CALM      29.93S
LEWISTON, ID   CLOUDY    71  44  37 S5        29.86S
WALLA WALLA    PTCLDY    65  42  43 SW7       29.91R
PENDLETON, OR  PTCLDY    65  42  43 SW6       29.90S
$$



USA.gov is the U.S. government's official web portal to all federal, state and local government web resources and services.